FW8345 Weather Reports


time (UTC)temp
F
wind
direction
speed
knots
gust
knots
rain 1hr
in
rain 24hr
in
rain mn
in
humidity
%
barometer
mb
20260508065038 53 143 1.7 5.2 0.00 0.00 0.00 80 1017.3
20260508064552 53 119 0.9 5.2 0.00 0.00 0.00 82 1017.3
20260508064040 53 130 0.9 5.2 0.00 0.00 0.00 85 1017.2
20260508063537 51 196 0.0 4.3 0.00 0.00 0.00 86 1017.3
20260508063059 51 171 0.9 4.3 0.00 0.00 0.00 87 1017.3
20260508062537 50 147 0.0 3.5 0.00 0.00 0.00 88 1017.2
20260508062038 49 0 0.9 3.5 0.00 0.00 0.00 87 1017.2
20260508061548 49 167 0.0 4.3 0.00 0.00 0.00 87 1017.2
20260508061038 49 167 0.9 4.3 0.00 0.00 0.00 87 1017.2
20260508060538 48 169 0.9 6.1 0.00 0.00 0.00 87 1017.1
20260508060046 48 0 1.7 6.1 0.00 0.00 0.00 87 1017.2
20260508055537 48 167 3.5 6.1 0.00 0.00 0.00 87 1017.1
20260508055036 48 164 0.9 5.2 0.00 0.00 0.00 87 1017.0
20260508054548 48 171 1.7 5.2 0.00 0.00 0.00 87 1017.0
20260508054037 47 169 2.6 5.2 0.00 0.00 0.00 86 1017.0
20260508053537 47 156 1.7 4.3 0.00 0.00 0.00 86 1017.0
20260508053055 47 165 1.7 4.3 0.00 0.00 0.00 86 1016.8
20260508052612 47 157 0.0 1.7 0.00 0.00 0.00 85 1016.8
20260508052037 47 0 0.0 2.6 0.00 0.00 0.00 85 1016.8
20260508051553 47 147 0.0 3.5 0.00 0.00 0.00 85 1016.8
20260508051040 47 0 0.9 4.3 0.00 0.00 0.00 84 1016.7
20260508050537 47 158 0.9 4.3 0.00 0.00 0.00 84 1016.7
20260508050051 47 190 0.0 2.6 0.00 0.00 0.00 84 1016.7
20260508045537 47 202 0.0 2.6 0.00 0.00 0.00 84 1016.7
20260508045037 47 0 0.0 0.9 0.00 0.00 0.00 84 1016.6
20260508044551 47 0 0.0 0.9 0.00 0.00 0.00 84 1016.7
20260508044040 47 0 0.0 0.9 0.00 0.00 0.00 84 1016.7
20260508043537 47 0 0.0 3.5 0.00 0.00 0.00 84 1016.7
20260508043059 47 0 0.0 3.5 0.00 0.00 0.00 85 1016.7
20260508042536 47 175 0.9 4.3 0.00 0.00 0.00 85 1016.7
20260508042037 47 178 1.7 4.3 0.00 0.00 0.00 85 1016.7
20260508041559 47 0 0.0 3.5 0.00 0.00 0.00 85 1016.6
20260508041039 48 184 0.0 1.7 0.00 0.00 0.00 85 1016.5
20260508040537 47 171 0.0 1.7 0.00 0.00 0.00 85 1016.5
20260508040053 48 0 0.0 0.0 0.00 0.00 0.00 85 1016.5
20260508035538 48 0 0.0 0.0 0.00 0.00 0.00 85 1016.5
20260508035038 48 0 0.0 0.9 0.00 0.00 0.00 85 1016.5
20260508034549 48 0 0.0 4.3 0.00 0.00 0.00 85 1016.5
20260508034037 48 0 0.0 4.3 0.00 0.00 0.00 85 1016.6
20260508033536 47 181 0.9 3.5 0.00 0.00 0.00 85 1016.6
20260508033047 47 179 0.9 4.3 0.00 0.00 0.00 85 1016.6
20260508032537 48 235 0.9 5.2 0.00 0.00 0.00 86 1016.6
20260508032042 48 169 1.7 5.2 0.00 0.00 0.00 86 1016.7
20260508031549 48 168 0.9 4.3 0.00 0.00 0.00 86 1016.6
20260508031037 48 183 0.9 3.5 0.00 0.00 0.00 86 1016.7
20260508030537 48 0 0.0 1.7 0.00 0.00 0.00 86 1016.8
20260508030051 48 0 0.0 1.7 0.00 0.00 0.00 86 1016.8
20260508025537 48 144 0.0 2.6 0.00 0.00 0.00 85 1016.7
20260508025039 48 0 0.0 2.6 0.00 0.00 0.00 85 1016.7
20260508024549 48 141 0.9 2.6 0.00 0.00 0.00 85 1016.7
20260508024038 48 160 0.0 0.9 0.00 0.00 0.00 85 1016.7
20260508023538 48 187 0.0 0.9 0.00 0.00 0.00 85 1016.8
20260508023047 48 0 0.0 0.0 0.00 0.00 0.00 85 1016.8
20260508022536 48 0 0.0 0.0 0.00 0.00 0.00 85 1016.8
20260508022036 48 0 0.0 0.9 0.00 0.00 0.00 85 1016.7
20260508021549 48 0 0.0 0.9 0.00 0.00 0.00 85 1016.7
20260508021036 48 0 0.0 0.9 0.00 0.00 0.00 84 1016.7
20260508020537 48 0 0.0 0.0 0.00 0.00 0.00 84 1016.7
20260508020049 48 0 0.0 0.0 0.00 0.00 0.00 84 1016.6
20260508015537 48 0 0.0 1.7 0.00 0.00 0.00 84 1016.7
20260508015038 48 0 0.0 2.6 0.00 0.00 0.00 84 1016.6
20260508014548 48 186 0.0 4.3 0.00 0.00 0.00 84 1016.7
20260508014038 48 153 1.7 4.3 0.00 0.00 0.00 84 1016.7
20260508013538 48 175 0.9 4.3 0.00 0.00 0.00 84 1016.7
20260508013054 49 173 2.6 5.2 0.00 0.00 0.00 84 1016.7
20260508012538 49 162 2.6 5.2 0.00 0.00 0.00 84 1016.8
20260508012037 49 173 0.9 3.5 0.00 0.00 0.00 84 1016.8
20260508011549 49 178 0.0 2.6 0.00 0.00 0.00 84 1016.8
20260508011035 49 0 0.9 3.5 0.00 0.00 0.00 84 1016.8
20260508010536 49 171 0.9 3.5 0.00 0.00 0.00 84 1016.7
20260508010044 49 165 0.9 3.5 0.00 0.00 0.00 83 1016.7
20260508005536 49 0 0.9 4.3 0.00 0.00 0.00 83 1016.7
20260508005039 49 193 0.9 5.2 0.00 0.00 0.00 83 1016.7
20260508004548 49 167 1.7 6.1 0.00 0.00 0.00 83 1016.8
20260508004040 50 175 3.5 6.1 0.00 0.00 0.00 83 1016.8
20260508003537 50 161 2.6 6.1 0.00 0.00 0.00 82 1016.8
20260508003044 50 169 2.6 6.1 0.00 0.00 0.00 81 1016.8
20260508002536 50 175 0.0 7.0 0.00 0.00 0.00 80 1016.8
20260508002036 50 0 1.7 7.0 0.00 0.00 0.00 80 1016.9
20260508001611 50 161 3.5 7.0 0.00 0.00 0.00 79 1016.9
20260508001039 50 202 1.7 4.3 0.00 0.00 0.00 79 1016.9
20260508000537 50 161 1.7 4.3 0.00 0.00 0.00 78 1017.0
20260508000048 51 207 0.9 3.5 0.00 0.00 0.00 78 1016.9
20260507235536 51 182 0.9 3.5 0.00 0.00 0.00 78 1016.9
20260507235036 51 0 0.0 2.6 0.00 0.00 0.00 78 1016.8
20260507234547 51 184 0.0 1.7 0.00 0.00 0.00 77 1016.9
20260507234058 51 0 0.0 1.7 0.00 0.00 0.00 77 1016.8
20260507233536 51 0 0.0 1.7 0.00 0.00 0.00 77 1016.8
20260507233047 51 0 0.0 4.3 0.00 0.00 0.00 76 1017.0
20260507232535 51 0 0.9 4.3 0.00 0.00 0.00 76 1016.8
20260507232037 51 167 1.7 4.3 0.00 0.00 0.00 74 1016.9
20260507231549 51 173 1.7 3.5 0.00 0.00 0.00 74 1016.9
20260507231036 51 0 0.0 2.6 0.00 0.00 0.00 74 1017.0
20260507230536 51 186 0.9 3.5 0.00 0.00 0.00 73 1016.9
20260507230048 51 0 0.0 3.5 0.00 0.00 0.00 73 1016.9
20260507225538 51 169 0.9 3.5 0.00 0.00 0.00 73 1016.9
20260507225038 51 174 0.9 2.6 0.00 0.00 0.00 73 1017.0
20260507224551 52 0 0.0 2.6 0.00 0.00 0.00 72 1017.0
20260507224036 52 163 0.0 3.5 0.00 0.00 0.00 72 1016.8
20260507223536 52 163 0.0 3.5 0.00 0.00 0.00 72 1016.7
20260507223051 52 165 0.9 3.5 0.00 0.00 0.00 72 1016.8
20260507222536 52 0 0.0 3.5 0.00 0.00 0.00 72 1016.8
20260507222036 52 0 0.0 4.3 0.00 0.00 0.00 72 1016.9
20260507221547 52 206 0.9 4.3 0.00 0.00 0.00 71 1016.8
20260507221036 52 0 0.0 3.5 0.00 0.00 0.00 71 1016.8
20260507220535 52 189 0.0 3.5 0.00 0.00 0.00 71 1016.9
20260507220049 52 145 0.0 3.5 0.00 0.00 0.00 71 1016.8
20260507215537 52 0 0.0 3.5 0.00 0.00 0.00 71 1016.8
20260507215039 52 0 0.9 4.3 0.00 0.00 0.00 71 1016.8
20260507214551 52 189 0.9 4.3 0.00 0.00 0.00 71 1016.7
20260507214036 52 193 0.9 2.6 0.00 0.00 0.00 71 1016.8
20260507213537 52 0 0.0 2.6 0.00 0.00 0.00 71 1016.8
20260507213048 52 171 0.0 2.6 0.00 0.00 0.00 71 1016.7
20260507212536 52 0 0.0 2.6 0.00 0.00 0.00 71 1016.7
20260507212036 52 188 0.0 2.6 0.00 0.00 0.00 71 1016.7
20260507211547 52 0 0.0 0.9 0.00 0.00 0.00 71 1016.7
20260507211037 52 0 0.0 0.9 0.00 0.00 0.00 71 1016.7
20260507210541 52 0 0.0 0.0 0.00 0.00 0.00 71 1016.7
20260507210051 52 0 0.0 0.0 0.00 0.00 0.00 71 1016.7
20260507205537 52 0 0.0 0.9 0.00 0.00 0.00 71 1016.6
20260507205039 53 0 0.0 2.6 0.00 0.00 0.00 71 1016.5
20260507204556 53 0 0.0 2.6 0.00 0.00 0.00 70 1016.6
20260507204037 53 0 0.0 2.6 0.00 0.00 0.00 70 1016.6
20260507203537 53 0 0.0 2.6 0.00 0.00 0.00 69 1016.5
20260507203049 53 0 0.0 6.1 0.00 0.00 0.00 68 1016.5
20260507202539 53 0 0.0 6.1 0.00 0.00 0.00 68 1016.4
20260507202040 53 198 1.7 6.1 0.00 0.00 0.00 68 1016.4
20260507201553 53 217 0.9 6.1 0.00 0.00 0.00 68 1016.3
20260507201037 53 201 0.9 6.1 0.00 0.00 0.00 67 1016.3
20260507200538 53 0 1.7 6.1 0.00 0.00 0.00 67 1016.2
20260507200041 53 223 0.0 4.3 0.00 0.00 0.00 67 1016.2
20260507195537 54 211 0.0 2.6 0.00 0.00 0.00 66 1016.1
20260507195037 54 0 0.0 3.5 0.00 0.00 0.00 66 1016.2
20260507194547 54 0 0.0 3.5 0.00 0.00 0.00 66 1016.1
20260507194037 54 207 0.9 3.5 0.00 0.00 0.00 66 1016.0
20260507193537 54 188 0.9 3.5 0.00 0.00 0.00 65 1016.0
20260507193050 54 202 0.9 4.3 0.00 0.00 0.00 65 1016.0
20260507192536 54 0 0.0 4.3 0.00 0.00 0.00 65 1015.9
20260507192036 54 221 0.9 4.3 0.00 0.00 0.00 64 1016.0
20260507191552 55 219 0.9 4.3 0.00 0.00 0.00 65 1016.0
20260507191038 55 188 0.0 5.2 0.00 0.00 0.00 64 1015.9
20260507190537 55 214 1.7 5.2 0.00 0.00 0.00 64 1015.9
20260507190053 55 178 0.9 5.2 0.00 0.00 0.00 63 1015.9
20260507185537 55 0 0.0 5.2 0.00 0.00 0.00 63 1015.9
20260507185040 55 0 0.9 7.0 0.00 0.00 0.00 62 1015.8
20260507184550 55 222 0.9 7.0 0.00 0.00 0.00 62 1016.0
20260507184037 55 0 0.9 7.8 0.00 0.00 0.00 61 1015.9
20260507183537 55 0 0.9 8.7 0.00 0.00 0.00 60 1015.8
20260507183053 55 219 1.7 8.7 0.00 0.00 0.00 61 1015.8
20260507182537 56 0 0.9 6.1 0.00 0.00 0.00 61 1015.8
20260507182038 56 190 0.9 7.0 0.00 0.00 0.00 60 1015.7
20260507181559 56 0 0.9 7.0 0.00 0.00 0.00 60 1015.7
20260507181037 56 0 0.0 5.2 0.00 0.00 0.00 60 1015.6
20260507180537 56 131 0.9 6.1 0.00 0.00 0.00 60 1015.5
20260507180049 56 0 1.7 6.1 0.00 0.00 0.00 60 1015.5
20260507175538 56 176 0.0 6.1 0.00 0.00 0.00 60 1015.6
20260507175037 56 0 1.7 6.1 0.00 0.00 0.00 61 1015.6
20260507174557 56 266 0.9 9.6 0.00 0.00 0.00 59 1015.5
20260507174036 56 0 3.5 9.6 0.00 0.00 0.00 58 1015.5
20260507173541 57 173 2.6 7.8 0.00 0.00 0.00 61 1015.5
20260507173051 57 199 2.6 7.0 0.00 0.00 0.00 59 1015.6
20260507172539 57 209 1.7 7.8 0.00 0.00 0.00 59 1015.5
20260507172037 57 173 2.6 7.8 0.00 0.00 0.00 60 1015.5
20260507171556 57 161 1.7 7.8 0.00 0.00 0.00 60 1015.6
20260507171037 57 195 1.7 9.6 0.00 0.00 0.00 60 1015.5
20260507170539 57 181 4.3 9.6 0.00 0.00 0.00 59 1015.5
20260507170052 58 201 5.2 9.6 0.00 0.00 0.00 60 1015.5
20260507165537 58 126 2.6 8.7 0.00 0.00 0.00 61 1015.5
20260507165037 58 185 2.6 8.7 0.00 0.00 0.00 59 1015.6
20260507164547 58 167 4.3 10.4 0.00 0.00 0.00 59 1015.6
20260507164040 58 180 4.3 10.4 0.00 0.00 0.00 60 1015.5
20260507163538 58 178 5.2 8.7 0.00 0.00 0.00 59 1015.5
20260507163045 58 174 2.6 7.8 0.00 0.00 0.00 60 1015.4
20260507162538 58 124 4.3 7.8 0.00 0.00 0.00 59 1015.5
20260507162037 59 165 1.7 8.7 0.00 0.00 0.00 61 1015.4
20260507161544 59 185 1.7 8.7 0.00 0.00 0.00 60 1015.3
20260507161041 59 144 4.3 8.7 0.00 0.00 0.00 58 1015.4
20260507160538 59 130 2.6 8.7 0.00 0.00 0.00 60 1015.3
20260507160053 59 171 3.5 8.7 0.00 0.00 0.00 55 1015.4
20260507155537 58 178 1.7 5.2 0.00 0.00 0.00 59 1015.5
20260507155037 58 111 0.9 7.8 0.00 0.00 0.00 55 1015.3
20260507154549 59 134 4.3 8.7 0.00 0.00 0.00 60 1015.6
20260507154037 59 178 2.6 9.6 0.00 0.00 0.00 57 1015.5
20260507153537 59 149 4.3 9.6 0.00 0.00 0.00 59 1015.6
20260507153058 59 192 2.6 9.6 0.00 0.00 0.00 59 1015.5
20260507152537 59 225 4.3 9.6 0.00 0.00 0.00 57 1015.5
20260507152038 59 140 2.6 9.6 0.00 0.00 0.00 59 1015.5
20260507151550 60 163 3.5 9.6 0.00 0.00 0.00 60 1015.5
20260507151037 60 143 3.5 7.8 0.00 0.00 0.00 60 1015.5
20260507150538 60 157 3.5 7.8 0.00 0.00 0.00 58 1015.6
20260507150049 60 214 3.5 7.0 0.00 0.00 0.00 60 1015.6
20260507145537 60 0 1.7 6.1 0.00 0.00 0.00 60 1015.7
20260507145037 60 185 2.6 7.0 0.00 0.00 0.00 52 1015.6
20260507144548 60 193 1.7 7.0 0.00 0.00 0.00 57 1015.7
20260507144039 59 186 0.9 7.0 0.00 0.00 0.00 56 1015.7
20260507143538 60 143 1.7 7.0 0.00 0.00 0.00 59 1015.7
20260507143050 60 185 2.6 7.8 0.00 0.00 0.00 58 1015.8
20260507142536 60 163 3.5 7.8 0.00 0.00 0.00 57 1015.8
20260507142036 60 0 0.9 6.1 0.00 0.00 0.00 58 1015.9
20260507141547 59 0 0.0 9.6 0.00 0.00 0.00 61 1015.9
20260507141036 58 179 3.5 9.6 0.00 0.00 0.00 58 1015.9
20260507140536 58 141 4.3 9.6 0.00 0.00 0.00 60 1016.0
20260507140053 59 134 5.2 9.6 0.00 0.00 0.00 60 1016.0
20260507135538 59 142 1.7 8.7 0.00 0.00 0.00 63 1016.1
20260507135037 58 152 4.3 8.7 0.00 0.00 0.00 58 1016.0
20260507134554 59 142 5.2 8.7 0.00 0.00 0.00 56 1016.1
20260507134037 60 121 3.5 7.8 0.00 0.00 0.00 59 1016.1
20260507133538 59 144 1.7 6.1 0.00 0.00 0.00 60 1016.1
20260507133052 58 106 2.6 7.0 0.00 0.00 0.00 59 1016.1
20260507132537 58 212 3.5 8.7 0.00 0.00 0.00 60 1016.1
20260507132041 58 161 4.3 8.7 0.00 0.00 0.00 59 1016.1
20260507131602 59 144 1.7 8.7 0.00 0.00 0.00 58 1016.2
20260507131036 59 0 0.9 7.8 0.00 0.00 0.00 61 1016.2
20260507130538 59 168 2.6 7.8 0.00 0.00 0.00 62 1016.2
20260507130105 58 142 0.9 8.7 0.00 0.00 0.00 59 1016.2
20260507125536 59 110 4.3 8.7 0.00 0.00 0.00 54 1016.2
20260507125037 62 138 3.5 8.7 0.00 0.00 0.00 54 1016.2
20260507124554 62 195 6.1 8.7 0.00 0.00 0.00 58 1016.2
20260507124038 62 114 1.7 7.0 0.00 0.00 0.00 58 1016.2
20260507123537 61 200 3.5 9.6 0.00 0.00 0.00 59 1016.3
20260507123046 59 136 4.3 9.6 0.00 0.00 0.00 57 1016.3
20260507122537 59 144 5.2 11.3 0.00 0.00 0.00 57 1016.3
20260507122038 59 126 4.3 11.3 0.00 0.00 0.00 61 1016.4
20260507121602 60 122 4.3 8.7 0.00 0.00 0.00 56 1016.4
20260507121037 60 132 2.6 7.8 0.00 0.00 0.00 60 1016.5
20260507120537 60 140 3.5 7.8 0.00 0.00 0.00 61 1016.6
20260507120100 59 132 1.7 7.8 0.00 0.00 0.00 62 1016.5
20260507115538 59 185 2.6 7.8 0.00 0.00 0.00 64 1016.6
20260507115037 59 132 0.0 7.0 0.00 0.00 0.00 65 1016.6
20260507114604 59 165 0.9 5.2 0.00 0.00 0.00 63 1016.6
20260507114037 58 201 1.7 9.6 0.00 0.00 0.00 62 1016.7
20260507113538 58 150 3.5 10.4 0.00 0.00 0.00 62 1016.6
20260507113051 59 174 4.3 10.4 0.00 0.00 0.00 61 1016.6
20260507112537 59 128 4.3 8.7 0.00 0.00 0.00 62 1016.7
20260507112037 59 163 4.3 8.7 0.00 0.00 0.00 63 1016.7
20260507111547 59 131 3.5 8.7 0.00 0.00 0.00 64 1016.7
20260507111038 59 0 2.6 10.4 0.00 0.00 0.00 62 1016.8
20260507110539 58 172 4.3 10.4 0.00 0.00 0.00 64 1017.0
20260507110048 58 188 1.7 7.8 0.00 0.00 0.00 64 1017.0
20260507105537 58 135 0.9 8.7 0.00 0.00 0.00 64 1017.0
20260507105041 57 157 4.3 9.6 0.00 0.00 0.00 64 1017.0
20260507104549 58 133 2.6 9.6 0.00 0.00 0.00 67 1017.0
20260507104038 58 147 2.6 9.6 0.00 0.00 0.00 64 1017.1
20260507103542 58 158 4.3 9.6 0.00 0.00 0.00 66 1017.1
20260507103051 57 153 5.2 9.6 0.00 0.00 0.00 68 1017.1
20260507102538 56 115 4.3 9.6 0.00 0.00 0.00 68 1017.2
20260507102038 56 148 4.3 8.7 0.00 0.00 0.00 70 1017.3
20260507101546 56 121 4.3 9.6 0.00 0.00 0.00 71 1017.3
20260507101037 56 145 5.2 9.6 0.00 0.00 0.00 72 1017.4
20260507100542 55 139 2.6 8.7 0.00 0.00 0.00 74 1017.4
20260507100048 55 145 5.2 9.6 0.00 0.00 0.00 75 1017.3
20260507095537 54 126 5.2 9.6 0.00 0.00 0.00 75 1017.3
20260507095038 53 134 2.6 10.4 0.00 0.00 0.00 75 1017.3
20260507094548 53 154 4.3 10.4 0.00 0.00 0.00 75 1017.3
20260507094038 53 115 5.2 9.6 0.00 0.00 0.00 77 1017.3
20260507093538 52 134 1.7 7.0 0.00 0.00 0.00 79 1017.3
20260507093055 52 149 2.6 7.0 0.00 0.00 0.00 78 1017.3
20260507092538 52 116 1.7 7.8 0.00 0.00 0.00 77 1017.2
20260507092037 52 126 4.3 7.8 0.00 0.00 0.00 78 1017.3
20260507091552 51 130 3.5 7.8 0.00 0.00 0.00 79 1017.3
20260507091038 51 171 3.5 9.6 0.00 0.00 0.00 79 1017.4
20260507090538 51 128 6.1 9.6 0.00 0.00 0.00 79 1017.3
20260507090047 51 135 4.3 7.8 0.00 0.00 0.00 79 1017.3
20260507085537 51 159 3.5 8.7 0.00 0.00 0.00 80 1017.3
20260507085038 50 159 4.3 8.7 0.00 0.00 0.00 80 1017.3
20260507084547 50 113 4.3 7.8 0.00 0.00 0.00 80 1017.3
20260507084036 50 128 4.3 7.8 0.00 0.00 0.00 81 1017.4
20260507083537 50 141 3.5 7.8 0.00 0.00 0.00 82 1017.4
20260507083050 49 163 2.6 7.0 0.00 0.00 0.00 83 1017.3
20260507082538 49 134 2.6 7.8 0.00 0.00 0.00 83 1017.3
20260507082037 49 136 2.6 7.8 0.00 0.00 0.00 83 1017.4
20260507081554 49 137 4.3 7.8 0.00 0.00 0.00 82 1017.3
20260507081038 49 142 5.2 7.8 0.00 0.00 0.00 83 1017.3
20260507080537 49 127 4.3 9.6 0.00 0.00 0.00 84 1017.3
20260507080057 48 184 2.6 9.6 0.00 0.00 0.00 84 1017.3
20260507075538 48 150 3.5 7.0 0.00 0.00 0.00 85 1017.3
20260507075038 48 137 2.6 8.7 0.00 0.00 0.00 86 1017.3
20260507074600 47 136 5.2 8.7 0.00 0.00 0.00 86 1017.3
20260507074037 47 136 4.3 8.7 0.00 0.00 0.00 86 1017.3
20260507073540 46 146 3.5 7.8 0.00 0.00 0.00 86 1017.2
20260507073046 46 167 2.6 10.4 0.00 0.00 0.00 86 1017.2
20260507072538 46 144 5.2 10.4 0.00 0.00 0.00 86 1017.2
20260507072036 46 129 6.1 10.4 0.00 0.00 0.00 87 1017.2
20260507071546 46 134 4.3 9.6 0.00 0.00 0.00 87 1017.2
20260507071038 46 140 6.1 9.6 0.00 0.00 0.00 87 1017.2
20260507070538 46 145 6.1 9.6 0.00 0.00 0.00 88 1017.2
20260507070046 45 131 4.3 8.7 0.00 0.00 0.00 88 1017.2
20260507065538 45 138 3.5 7.0 0.00 0.00 0.00 88 1017.2